TimeEST,TemperatureF,Dew PointF,Humidity,Sea Level PressureIn,VisibilityMPH,Wind Direction,Wind SpeedMPH,Gust SpeedMPH,PrecipitationIn,Events,Conditions,WindDirDegrees,DateUTC
12:53 AM,10.9,1.0,64,30.01,10.0,North,13.8,-,N/A,,Scattered Clouds,360,2013-01-21 05:53:00
1:53 AM,9.0,-0.0,67,30.02,10.0,North,12.7,19.6,N/A,,Clear,350,2013-01-21 06:53:00
2:53 AM,7.0,-2.0,67,30.04,10.0,Variable,5.8,-,N/A,,Clear,0,2013-01-21 07:53:00
4:53 AM,3.9,-2.9,73,30.04,10.0,Calm,Calm,-,N/A,,Clear,0,2013-01-21 09:53:00
5:53 AM,5.0,-2.9,70,30.05,10.0,NW,4.6,-,N/A,,Clear,320,2013-01-21 10:53:00
7:53 AM,3.9,-2.0,76,30.07,10.0,NNW,5.8,-,N/A,,Overcast,330,2013-01-21 12:53:00
8:53 AM,7.0,-2.0,67,30.08,10.0,North,3.5,-,N/A,,Overcast,10,2013-01-21 13:53:00
9:53 AM,9.0,-0.9,64,30.09,10.0,Calm,Calm,-,N/A,,Mostly Cloudy,0,2013-01-21 14:53:00
10:53 AM,10.0,3.0,73,30.08,10.0,ESE,4.6,-,N/A,,Mostly Cloudy,110,2013-01-21 15:53:00
11:41 AM,10.4,3.2,73,30.03,10.0,NE,4.6,-,N/A,,Overcast,50,2013-01-21 16:41:00
11:53 AM,10.9,3.9,73,30.04,10.0,ENE,3.5,-,N/A,,Overcast,60,2013-01-21 16:53:00
12:07 PM,10.4,3.2,73,30.01,10.0,North,6.9,-,N/A,,Overcast,10,2013-01-21 17:07:00
12:53 PM,10.9,5.0,77,30.00,10.0,NNE,9.2,-,0.00,,Clear,20,2013-01-21 17:53:00
1:53 PM,12.0,5.0,73,29.99,10.0,NNE,4.6,-,0.00,,Overcast,30,2013-01-21 18:53:00
2:53 PM,12.9,3.9,67,29.98,10.0,NNE,6.9,-,N/A,,Overcast,20,2013-01-21 19:53:00
3:53 PM,10.9,3.0,70,29.97,10.0,North,8.1,-,N/A,,Mostly Cloudy,360,2013-01-21 20:53:00
4:53 PM,10.0,1.9,70,29.97,10.0,North,8.1,-,N/A,,Overcast,360,2013-01-21 21:53:00
5:53 PM,9.0,3.0,77,29.97,2.5,North,10.4,-,0.00,Snow,Light Snow,10,2013-01-21 22:53:00
6:02 PM,8.6,3.2,79,29.96,2.5,North,11.5,-,0.00,Snow,Light Snow,10,2013-01-21 23:02:00
6:13 PM,8.6,3.2,79,29.95,3.0,North,13.8,-,0.00,Snow,Light Snow,10,2013-01-21 23:13:00
6:26 PM,8.6,3.2,79,29.96,3.0,North,8.1,-,0.00,Snow,Light Snow,360,2013-01-21 23:26:00
6:53 PM,7.0,1.9,80,29.98,4.0,North,10.4,-,0.00,Snow,Light Snow,360,2013-01-21 23:53:00
7:31 PM,6.8,1.4,79,29.95,2.5,NNW,8.1,-,0.00,Snow,Light Snow,340,2013-01-22 00:31:00
7:51 PM,6.8,1.4,79,29.94,1.8,NNW,9.2,-,0.00,Snow,Light Snow,340,2013-01-22 00:51:00
7:53 PM,7.0,1.9,80,29.96,1.8,NNW,9.2,-,0.00,Snow,Light Snow,340,2013-01-22 00:53:00
8:48 PM,8.6,1.4,73,29.92,2.5,NW,4.6,-,0.00,Snow,Light Snow,320,2013-01-22 01:48:00
8:53 PM,6.1,1.9,83,29.94,2.5,NW,4.6,-,0.00,Snow,Light Snow,320,2013-01-22 01:53:00
9:00 PM,6.8,1.4,79,29.92,3.0,NW,6.9,-,0.00,Snow,Light Snow,320,2013-01-22 02:00:00
9:27 PM,6.8,1.4,79,29.91,4.0,NW,5.8,-,0.00,Snow,Light Snow,310,2013-01-22 02:27:00
9:53 PM,6.1,1.0,80,29.92,7.0,NNW,6.9,-,0.00,Snow,Light Snow,330,2013-01-22 02:53:00
10:53 PM,7.0,1.0,77,29.90,6.0,NNW,10.4,-,0.00,Snow,Light Snow,330,2013-01-22 03:53:00
11:53 PM,7.0,1.9,80,29.87,2.5,North,15.0,-,0.00,Snow,Light Snow,350,2013-01-22 04:53:00